CAPE
618 487 591 693 782 900 1057 1298 1439 1680 1551 1397 1440 1060 255 245 364 389 536 734 1118 1445 1249 1256 1182 798 920 985 610 617 872 649 508 447 310 308 304 332 740 747 527 296 198
755 832 980 1002 1145 1176 1303 1378 1681 1453 1254 1316 1489 1283 924 791 633 539 284 552 501 786 960 1143 1084 1054 1079 937 903 806 645 526 558 668 617 730 714 770 716 708 740 459 159
1280 1000 964 1003 1083 1439 1638 1603 1572 1320 977 986 1428 1347 948 896 951 1081 939 869 1017 511 661 914 1022 1104 1073 951 873 963 946 819 788 845 874 972 930 759 659 579 534 529 277
1439 1502 1075 838 1132 1305 1215 1188 1154 950 942 1020 1113 958 810 667 863 924 909 963 797 797 777 544 748 1011 1106 1326 1236 1089 902 845 872 953 1138 1249 889 704 615 685 513 277 251
1459 1128 944 1068 1318 1146 1088 994 1118 982 938 831 812 906 873 771 815 657 931 987 814 832 789 775 442 398 676 1138 1289 1126 940 1031 1080 1005 951 783 745 642 439 309 287 139 82
1112 1311 1206 1385 1125 950 986 1049 1065 1016 1009 962 650 656 704 775 878 792 794 745 879 1132 1001 1207 1190 877 735 588 594 674 724 784 835 935 979 595 345 324 238 150 73 0 0
1352 1575 1002 881 1117 922 1303 1331 1302 1104 687 969 716 492 282 410 616 579 627 613 866 985 1065 1247 1392 1008 894 932 839 741 683 693 744 880 902 785 491 113 24 69 53 1 0
1124 1314 1029 655 890 957 1453 1577 1399 644 657 756 370 136 108 268 249 246 329 432 535 663 768 1003 1206 1452 1445 1015 936 864 703 645 675 728 777 811 793 759 590 220 79 53 12
1411 1393 1014 1264 1431 1257 787 1608 1283 1019 478 797 1207 757 352 244 532 390 568 290 585 501 639 825 964 1155 1563 1388 1379 1239 1110 656 536 631 709 732 741 751 775 733 608 455 297
1496 1592 1687 1602 1868 1000 1006 1413 1036 833 873 108 604 625 1028 899 505 407 495 407 414 403 560 584 540 749 1214 1190 1067 1107 731 469 406 432 535 663 783 1014 1355 1640 1692 1469 1204
1519 1264 1464 1674 1677 1363 1524 1244 1477 1241 383 356 273 385 948 689 1371 861 405 421 292 382 573 740 745 710 1107 1345 1299 1192 585 433 459 623 846 1049 1170 1105 1228 1473 1655 1767 1900
1384 1735 1682 1822 1725 1370 1570 1518 1725 1696 1228 1014 532 603 569 446 695 821 616 513 505 498 742 842 851 990 1239 1498 1204 878 1000 1142 1061 1103 1324 1151 1174 976 1242 1311 1681 1917 1886
1067 1734 1914 1855 1357 1162 1504 1566 1230 1256 1434 1143 1331 497 619 688 878 1139 811 599 547 489 602 839 1122 1299 1255 1532 1581 1473 1890 1536 1268 1488 1431 1258 965 1210 985 1191 1499 1718 1964
1074 1163 1931 1564 1420 1466 1592 1584 1083 959 1139 1088 1492 1559 819 932 984 918 1008 766 526 487 670 700 727 830 925 1360 1623 1725 2024 2016 1496 1698 1227 1089 1207 1049 1037 1211 1319 1611 1814
954 1487 1746 1086 1266 1498 1672 1832 1172 1584 1608 1472 1301 1539 1320 752 1042 976 939 799 684 401 399 1086 647 869 958 963 1504 1987 2057 1858 1792 1770 1363 1255 1047 1020 1034 1270 1595 1739 1794
1037 1117 1826 1863 1332 1647 1663 1893 1397 1665 1505 1056 1058 1368 1686 729 934 997 930 676 624 460 340 287 688 1041 1678 1651 1451 1974 2248 1675 1515 1544 1323 1267 1149 1151 1294 1550 1634 1733 1540
1070 1411 1770 1769 1424 1670 1894 1958 1491 1475 1336 1267 1430 1640 1849 1695 1184 614 787 805 606 534 490 227 415 674 1743 1981 2215 2537 2296 1631 762 1231 1307 1284 1335 1422 1586 1523 1459 1319 955
936 1431 1608 1660 1587 1463 1817 2038 1609 1018 1567 1595 1424 1589 1711 1524 1823 1420 961 927 748 789 854 761 708 665 1097 1508 2047 2568 2037 1373 1472 1278 928 1074 1476 1647 1744 1340 796 465 144
972 1008 1354 1697 1557 1245 1587 2144 1919 1780 1830 1655 1751 1735 1579 1566 1756 1195 1271 981 1162 1342 1246 1130 880 878 979 1339 1798 1947 1699 1524 934 869 804 706 1371 1772 1842 916 251 8 0
955 749 963 1231 1548 1550 1199 1606 1847 2094 1967 2089 2129 2028 1773 1530 1729 2024 1797 1724 1953 1862 1530 1427 1129 1008 1085 1284 1624 1384 821 706 743 952 1014 1050 1045 1783 1387 736 43 0 0
1035 1028 801 792 1025 1241 1440 1397 1497 2026 2063 2212 2186 2280 2029 1679 1375 1602 1509 1533 1688 1871 1284 1027 953 933 951 1026 1219 714 684 619 730 627 657 991 773 2300 1113 302 11 0 0
1068 1135 1103 866 620 333 411 793 1399 1809 1646 2001 2035 2161 2171 1761 1599 1188 927 756 1018 1593 1529 862 303 253 811 953 601 606 624 604 606 545 874 665 932 2351 2818 2096 0 0 0
829 1116 1149 1071 1017 861 144 87 494 875 1106 1643 1860 1791 1761 1425 1748 1901 1450 940 753 703 769 1278 1422 1262 1075 1046 1279 1511 1401 1354 1157 992 995 1010 1242 2093 3055 38 0 0 0
1050 1046 1086 1176 1138 1169 745 275 26 542 833 1172 1326 1560 1836 1426 1195 1593 1853 1652 1772 1816 1559 1225 1172 1412 1521 1425 1516 1695 1855 1973 1580 1071 923 842 1091 1785 2732 1899 0 0 0
1115 1075 1062 1132 1253 1248 874 496 230 413 230 609 1082 1437 1659 1765 1772 1322 1432 1090 1193 1278 1056 1113 999 953 1126 1116 932 1024 846 550 292 94 154 323 684 1655 2166 2343 97 0 0
1107 1108 1036 1129 1160 1241 1192 689 247 514 444 353 293 993 1188 1242 1429 1301 1587 1443 1235 837 506 486 814 947 873 1113 559 767 1119 854 363 90 207 818 622 1158 1800 2481 2813 94 20
CIN
-1 -2 -5 -1 -1 0 -1 -1 0 -1 -1 -1 -1 -1 -23 -42 -29 -12 -12 -53 -15 -2 -2 -1 -2 -24 -7 -2 -27 -25 -6 -31 -60 -72 -105 -104 -99 -86 -27 -25 -39 -73 -92
0 -1 0 -1 -1 -1 -1 -1 -1 -1 -1 -2 0 -1 -1 -2 -14 -18 -36 -56 -90 -58 -37 -21 -17 -11 -4 -12 -16 -32 -63 -95 -92 -72 -78 -54 -58 -49 -53 -48 -41 -69 -127
0 0 -1 -1 0 -4 -5 -1 -1 -1 -2 -2 -2 0 -1 -1 -1 -1 -2 -1 -11 -80 -73 -48 -37 -28 -28 -51 -72 -56 -58 -84 -89 -73 -64 -46 -49 -80 -93 -101 -101 -92 -125
0 -1 -1 -1 -2 -1 -1 0 -2 -1 -2 -2 -1 -1 -1 0 0 -1 -1 0 -1 -4 -55 -120 -114 -75 -66 -25 -37 -67 -113 -123 -115 -93 -58 -45 -95 -123 -133 -105 -126 -177 -170
-1 -1 0 -1 -7 0 -1 -2 -1 -1 -2 -1 -2 -2 -1 -1 -2 -2 -1 -1 -2 -11 -31 -98 -202 -235 -172 -93 -74 -111 -148 -132 -122 -131 -136 -162 -162 -176 -216 -239 -232 -269 -281
-3 -3 -1 -1 -2 -2 -1 -2 -1 -1 -1 -2 -3 -3 -2 -2 0 -2 -2 -4 -2 -1 -24 -19 -39 -83 -166 -223 -244 -236 -234 -214 -203 -176 -163 -237 -291 -283 -293 -315 -348 0 0
-2 -10 0 -3 -1 -2 -3 -7 -2 -5 -1 -3 -1 -2 -8 -4 -2 0 -3 -16 -5 -17 -28 -26 -35 -73 -100 -153 -194 -237 -254 -246 -244 -210 -204 -213 -265 -370 -408 -372 -371 -140 0
-4 -2 -4 -7 -4 -2 -3 -4 -8 -2 -2 -2 -4 -70 -48 -9 -28 -53 -56 -60 -63 -54 -54 -56 -58 -54 -66 -106 -132 -207 -248 -276 -270 -248 -236 -224 -225 -228 -259 -330 -366 -384 -466
0 -2 -3 -1 -5 -4 -1 -4 -9 -7 -2 -2 -8 -2 -6 -20 -2 -26 -35 -101 -81 -84 -85 -85 -91 -85 -61 -79 -96 -104 -155 -259 -296 -282 -265 -261 -274 -263 -261 -254 -253 -279 -335
0 0 0 -6 -5 -1 -1 -5 -10 -2 -9 -40 -1 -1 -12 -12 -10 -9 -25 -81 -95 -90 -98 -100 -113 -106 -87 -82 -110 -131 -208 -301 -340 -335 -323 -309 -294 -246 -204 -169 -159 -166 -185
0 -3 -4 -2 -9 -4 -5 -1 -8 -11 -6 -4 -9 -1 -5 -3 -9 -2 -14 -28 -87 -86 -81 -69 -87 -97 -73 -64 -57 -98 -256 -304 -322 -314 -288 -261 -245 -249 -220 -186 -168 -143 -125
-2 -1 0 0 -2 -1 -1 -3 -1 -6 -5 -4 -2 -4 -2 -8 -3 -2 -2 -11 -23 -52 -36 -45 -68 -59 -47 -36 -86 -174 -194 -204 -245 -254 -235 -265 -254 -283 -241 -229 -162 -112 -126
-1 -4 0 -5 -4 -14 -4 0 -9 -1 -3 -2 -10 -3 -1 -1 -1 -1 -3 -5 -12 -39 -38 -33 -31 -31 -34 -34 -51 -123 -97 -157 -226 -224 -246 -269 -313 -289 -332 -296 -218 -165 -126
-1 -1 0 0 -3 -2 0 -1 -9 -2 -1 -4 -1 -2 -2 -2 -2 -2 -1 -6 -5 -14 -19 -55 -45 -54 -72 -54 -85 -98 -45 -120 -198 -206 -282 -306 -316 -340 -343 -296 -262 -203 -169
-1 0 0 -10 -1 0 -1 -1 -3 -1 -1 -1 -1 -3 -3 -2 -2 0 -2 -6 -16 -14 -10 -6 -44 -46 -74 -83 -76 -73 -76 -118 -161 -187 -270 -303 -363 -356 -375 -343 -273 -219 -193
-3 -1 -4 -1 -5 0 -1 -6 -1 -2 -6 -4 -2 -1 -4 -2 -1 -1 -1 -9 -19 -36 -44 -43 -29 -53 -55 -70 -70 -84 -74 -142 -144 -201 -256 -290 -334 -369 -380 -336 -279 -239 -256
-1 -1 -5 -4 -5 0 0 -1 -1 -1 -10 -3 -3 -1 -1 -1 -2 -6 -2 -4 -23 -36 -57 -87 -79 -68 -51 -57 -57 -57 -74 -109 -148 -209 -227 -270 -307 -327 -344 -346 -340 -346 -417
-11 0 -1 -4 0 -1 -1 -3 -6 -1 -2 -1 -1 0 -1 -1 -5 -15 -2 -3 -10 -21 -33 -74 -81 -105 -84 -77 -67 -59 -80 -106 -115 -161 -243 -276 -285 -278 -306 -397 -498 -617 -806
-31 -11 -1 -1 -3 0 -1 -2 -8 -2 -1 -1 -1 0 -2 -1 -1 -4 -2 -2 -2 -2 -5 -26 -60 -64 -70 -65 -52 -67 -102 -108 -123 -167 -213 -285 -258 -242 -289 -475 -720 -785 0
-47 -37 -23 -9 -1 -1 -2 -1 -1 -7 -3 -1 -1 -1 -1 -1 -1 -1 -1 -1 -1 -3 -2 -3 -30 -39 -42 -34 -37 -65 -120 -125 -147 -145 -151 -200 -223 -232 -385 -518 -693 0 0
-48 -53 -38 -36 -23 -3 -2 -4 -1 -1 -4 -1 -1 0 -1 -4 -13 -6 -1 -2 -1 -1 -1 -13 -19 -22 -23 -24 -40 -118 -138 -158 -157 -171 -163 -179 -171 -47 -398 -667 -113 0 0
-51 -41 -47 -49 -50 -41 -18 -11 -4 -2 -1 -2 -1 -2 -7 -15 -33 -53 -83 -90 -45 -3 -10 -57 -117 -127 -70 -62 -91 -124 -134 -166 -177 -167 -177 -223 -163 -33 -13 -112 0 0 0
-82 -50 -53 -46 -52 -53 -115 -138 -70 -24 -3 -2 0 -2 -4 -3 -21 -17 -58 -101 -140 -147 -145 -59 -54 -64 -78 -64 -58 -53 -63 -75 -96 -122 -133 -140 -131 -33 -13 -551 0 0 0
-40 -48 -52 -56 -60 -56 -96 -142 -202 -73 -31 -9 -1 0 -1 -8 -3 -12 -15 -9 -17 -16 -54 -92 -110 -90 -67 -54 -41 -16 -18 -16 -56 -82 -62 -114 -95 -43 -10 -184 0 0 0
-12 -30 -41 -41 -42 -77 -122 -171 -191 -101 -108 -80 -28 -7 -1 -5 -18 -36 -23 -27 -37 -49 -46 -72 -100 -114 -108 -108 -112 -82 -94 -76 -132 -193 -150 -142 -114 -38 -14 -21 -384 0 0
-1 -3 -21 -23 -36 -50 -82 -184 -239 -107 -81 -130 -146 -67 -50 -47 -47 -67 -45 -38 -50 -114 -125 -98 -87 -148 -166 -136 -210 -174 -87 -58 -100 -183 -116 -73 -94 -39 -22 -2 -16 -235 -48
Wind_Speed
25 23 22 19 19 20 19 17 15 12 16 17 15 13 13 14 16 15 19 17 14 13 13 12 13 13 12 12 11 10 9 10 9 8 8 9 9 8 8 8 14 14 14
17 24 22 19 18 15 14 14 12 12 16 20 18 12 13 15 14 16 15 20 17 15 14 14 14 14 13 12 12 11 11 10 9 9 8 9 9 8 8 10 12 12 12
18 20 18 18 17 15 16 17 16 15 19 20 16 15 16 15 16 14 14 13 20 19 17 16 15 14 14 13 13 12 11 10 9 8 8 7 7 8 8 9 10 10 10
18 20 21 18 17 17 15 15 15 13 15 17 13 12 14 16 16 15 15 15 15 16 19 18 16 15 14 14 13 12 11 10 9 8 7 6 7 7 8 8 8 8 8
20 20 20 20 19 18 15 15 14 15 16 14 18 14 14 15 16 15 16 17 17 16 15 19 16 16 15 14 13 12 11 10 9 8 7 7 7 6 6 7 7 7 7
17 19 18 19 21 19 17 15 14 15 13 13 13 12 14 15 15 15 16 18 17 17 18 16 15 16 16 15 13 12 11 10 8 7 6 6 6 6 6 6 6 6 5
19 19 18 18 20 20 14 18 18 17 14 14 17 17 16 18 18 16 17 17 17 18 16 16 16 13 16 16 15 13 11 10 8 7 6 6 5 5 5 4 4 3 4
20 19 19 20 20 19 19 18 20 18 15 14 13 17 17 21 19 15 16 17 17 17 17 17 15 15 14 13 14 12 11 9 7 5 4 3 3 3 3 3 1 0 0
21 19 22 19 19 19 21 19 20 19 15 16 14 15 17 11 19 16 18 17 16 17 15 16 16 15 15 14 13 12 11 8 6 4 2 1 1 2 3 3 4 4 4
21 21 21 21 20 19 18 20 19 17 17 15 17 14 13 13 14 15 9 12 17 18 14 16 15 15 14 14 13 11 10 8 7 4 2 1 2 3 5 5 5 5 6
21 20 21 22 20 20 20 20 20 19 18 17 17 16 14 14 14 15 12 13 10 12 12 14 14 15 14 13 12 11 11 9 7 5 2 2 4 6 7 7 7 6 6
22 22 21 22 21 20 20 22 19 20 21 19 20 19 16 16 12 15 15 14 14 12 11 12 12 13 14 14 12 12 10 8 7 5 3 2 5 7 9 9 8 6 3
22 23 23 22 21 21 21 21 22 21 22 22 21 21 18 18 16 15 17 14 17 14 14 12 13 14 15 15 15 14 9 9 11 7 2 2 5 8 10 11 9 7 5
23 20 23 23 22 22 21 21 22 22 22 23 22 23 21 20 20 18 17 18 19 20 19 18 18 18 19 19 17 16 14 11 16 9 5 5 5 8 11 10 8 6 7
24 22 24 24 23 23 23 11 22 21 21 24 23 25 25 23 23 21 21 20 20 21 21 18 21 20 20 21 20 19 19 20 14 6 7 8 5 8 9 9 9 10 12
28 23 27 25 24 23 24 22 16 14 18 22 25 24 26 26 25 25 24 23 24 24 24 23 23 24 24 23 21 23 22 19 11 1 6 14 6 7 9 12 14 15 19
29 28 27 27 25 23 23 25 25 21 22 24 24 25 27 27 27 27 26 26 26 26 26 26 26 25 26 25 25 24 23 21 22 7 12 16 3 9 13 17 20 22 22
31 30 29 28 19 27 25 22 24 23 21 24 24 25 26 26 28 29 28 28 28 28 28 29 29 29 28 28 26 25 25 26 27 12 28 5 11 20 21 21 24 25 26
29 30 30 31 27 19 24 27 25 25 23 23 24 26 26 24 25 28 25 28 27 25 27 28 30 29 30 30 29 26 27 29 24 31 9 14 14 19 22 23 23 26 28
27 28 29 32 32 25 26 27 26 25 27 24 22 24 25 24 26 21 23 24 27 28 29 27 30 30 28 27 24 29 31 31 31 31 26 25 9 18 18 21 23 25 27
28 26 27 27 34 34 29 8 9 16 16 24 16 13 14 20 21 18 23 19 24 24 26 28 29 28 28 27 30 32 33 31 32 31 30 32 33 19 15 20 22 24 26
31 29 25 25 25 35 37 26 21 13 6 13 9 5 8 3 14 19 19 24 31 25 26 29 30 30 29 29 27 33 33 34 33 27 32 33 25 14 18 19 21 21 26
32 33 34 29 27 23 28 29 18 15 23 10 8 7 7 7 7 8 10 17 20 18 13 14 28 24 27 25 27 30 30 34 33 35 35 32 24 15 17 18 18 19 25
33 32 33 33 32 32 28 21 20 23 27 29 17 13 11 12 9 8 7 7 6 6 6 8 9 11 9 6 9 21 29 32 30 25 18 33 29 20 18 16 17 17 23
33 33 32 34 34 34 31 25 25 28 33 32 27 19 16 14 13 13 12 11 11 9 11 9 11 13 10 10 9 9 14 22 35 33 30 32 29 27 25 14 15 16 18
32 32 35 35 36 39 34 30 27 30 32 29 27 22 21 24 17 17 16 15 15 13 16 11 9 10 10 11 10 11 8 9 11 38 28 26 31 30 29 21 15 15 14
Wind_Direction
127 148 154 165 165 157 158 163 171 182 165 156 165 173 172 168 163 170 149 160 179 182 185 187 174 171 172 171 171 175 176 170 165 160 156 140 133 133 125 116 95 90 89
175 138 152 170 169 187 189 181 191 185 164 140 153 184 179 166 174 168 176 145 161 177 175 173 171 173 174 176 175 172 168 165 162 157 148 139 130 126 117 108 97 93 92
183 168 173 183 186 197 189 176 172 170 150 147 164 169 162 170 168 180 182 188 142 143 157 167 170 170 169 169 168 166 165 163 160 156 149 142 137 123 113 105 98 95 97
189 173 166 181 194 192 206 204 194 191 175 168 193 188 177 169 172 178 177 180 176 167 151 159 166 169 167 166 161 161 161 159 156 155 155 146 129 118 109 104 100 98 98
174 180 175 170 179 189 206 208 210 195 179 192 168 183 178 178 172 175 173 165 165 174 182 157 167 170 169 166 165 165 164 162 158 150 141 129 119 114 107 102 97 95 98
204 187 194 185 172 188 196 212 213 214 217 212 210 210 191 182 186 186 178 165 175 175 170 179 179 169 159 162 168 167 170 166 158 146 134 123 114 106 102 100 98 97 100
192 199 204 205 192 187 223 201 195 201 213 214 190 178 180 166 167 185 181 183 187 178 187 181 182 187 166 157 158 161 170 169 157 145 135 121 108 96 89 87 92 95 97
184 191 200 191 204 207 202 203 192 201 216 222 221 183 174 125 148 197 194 190 193 191 186 185 198 183 182 180 164 163 175 170 165 157 149 131 105 81 60 47 34 347 163
178 186 168 197 203 209 197 206 197 207 225 214 216 209 181 230 153 176 177 194 202 196 202 192 194 190 188 188 174 163 168 187 188 184 177 123 50 10 355 333 300 283 267
186 180 184 184 197 208 226 210 211 222 215 221 204 218 219 217 208 191 263 228 205 193 221 202 205 207 204 196 181 179 198 214 225 227 233 317 5 360 353 335 316 293 275
202 197 190 178 184 190 210 225 222 223 228 229 221 218 230 215 201 210 217 226 249 238 241 223 238 227 238 222 213 219 236 238 239 245 269 341 24 18 360 348 335 318 293
203 203 201 189 192 202 200 201 242 235 227 233 225 222 234 224 245 212 211 224 231 262 281 282 273 269 267 251 239 252 236 239 250 263 287 22 23 11 4 357 359 5 354
217 209 202 203 199 187 202 210 220 242 230 228 227 223 243 230 237 229 221 238 228 261 269 301 285 275 275 248 253 261 210 239 270 270 292 9 355 2 12 17 18 21 26
228 240 205 201 203 199 177 181 214 220 238 227 236 229 233 241 238 240 241 234 213 215 236 245 266 262 271 266 245 257 251 245 277 266 282 310 350 9 23 15 0 14 44
248 252 215 200 201 215 220 289 210 238 245 227 235 226 221 234 234 242 240 246 241 223 223 263 244 268 265 260 259 259 262 274 262 251 276 296 321 16 2 6 25 46 48
242 256 229 204 197 195 211 224 273 290 265 244 234 244 230 233 241 239 232 239 240 237 234 247 248 264 270 267 259 269 269 262 252 151 270 289 296 360 9 33 43 46 40
246 248 248 222 197 188 191 201 216 244 244 243 249 249 237 243 237 237 238 232 231 232 234 243 260 259 268 258 263 265 265 266 274 40 266 283 356 23 33 37 39 37 34
249 251 252 252 275 206 198 185 191 192 184 206 257 257 253 259 251 245 241 236 239 245 241 248 257 259 259 269 258 262 267 277 287 320 293 274 31 25 28 32 29 30 25
261 256 256 251 262 284 197 203 194 199 194 197 205 241 258 270 271 255 267 252 240 234 242 243 260 265 275 272 277 260 269 288 268 305 316 13 20 20 24 27 28 26 23
267 266 264 258 257 272 250 204 201 198 209 202 197 202 210 226 271 285 283 284 276 268 267 253 258 272 294 303 304 269 288 299 296 295 341 347 285 17 25 27 27 25 26
269 270 270 269 261 260 267 268 191 186 187 204 188 180 181 195 197 196 285 298 289 295 291 287 290 295 299 305 296 285 294 311 314 316 317 324 316 6 21 25 26 24 24
266 268 271 272 272 262 258 271 277 284 247 195 193 199 190 260 190 199 201 214 245 294 295 290 292 295 301 306 312 295 296 301 312 330 319 296 345 8 6 10 17 24 20
267 266 266 270 271 271 270 269 267 266 279 270 251 239 233 228 228 210 207 209 213 213 216 298 269 303 299 312 313 311 310 301 311 308 303 320 342 1 3 6 14 20 17
269 268 268 268 269 270 270 264 262 269 274 276 277 269 262 278 270 258 269 241 250 252 272 285 247 234 239 273 316 321 311 308 313 325 334 306 323 347 355 359 8 17 12
270 270 271 269 269 269 269 267 268 271 272 273 275 265 258 255 257 264 251 267 279 270 296 250 241 244 269 293 295 307 318 321 301 306 315 307 318 323 338 354 0 11 13
272 272 271 270 269 268 270 269 266 270 272 274 273 265 239 228 256 257 256 250 244 269 294 247 283 254 260 288 262 245 261 257 250 284 314 319 310 315 326 344 354 2 11